RYR7UM LYPG-EPKK

Flight info

Callsign RYR7UM
Flight time 1h 19m
Altitude 35000
Route NIK DCT PARAK/N0441F340 DCT LITKU DCT REDSI DCT MEBAN
Aircraft B38M/M-SDE1FGHILORVWXY/HB1

Departure

Time 2026-05-09 12:33
Airport Podgorica Airport / Podgorica Golubovci Airbase (LYPG)

Arrival

Time 2026-05-09 13:53
Airport Kraków John Paul II International Airport (EPKK)
Time Latitude Longitude Altitude Speed Heading
2026-05-09 12:14 42.36741 19.24750 119 ft 0 kts 273°
2026-05-09 12:27 42.36743 19.24746 115 ft 0 kts 296°
2026-05-09 12:27 42.36748 19.24743 116 ft 1 kts 343°
2026-05-09 12:27 42.36762 19.24753 115 ft 3 kts 64°
2026-05-09 12:27 42.36743 19.24795 119 ft 10 kts 135°
2026-05-09 12:28 42.36668 19.24831 118 ft 13 kts 171°
2026-05-09 12:28 42.36633 19.24930 123 ft 12 kts 94°
2026-05-09 12:28 42.36598 19.25007 125 ft 11 kts 160°
2026-05-09 12:28 42.36492 19.25000 122 ft 20 kts 184°
2026-05-09 12:29 42.36334 19.24984 121 ft 24 kts 184°
2026-05-09 12:29 42.36152 19.24966 117 ft 28 kts 185°
2026-05-09 12:29 42.35947 19.24940 113 ft 31 kts 185°
2026-05-09 12:29 42.35727 19.24921 110 ft 33 kts 183°
2026-05-09 12:30 42.35488 19.24903 106 ft 36 kts 182°
2026-05-09 12:30 42.35237 19.24875 101 ft 35 kts 184°
2026-05-09 12:30 42.34854 19.24862 97 ft 12 kts 120°
2026-05-09 12:31 42.34847 19.24913 97 ft 0 kts 93°
2026-05-09 12:31 42.34847 19.24919 97 ft 2 kts 93°
2026-05-09 12:32 42.34845 19.24970 97 ft 8 kts 92°
2026-05-09 12:32 42.34843 19.25049 98 ft 9 kts 88°
2026-05-09 12:32 42.34866 19.25079 99 ft 6 kts 14°
2026-05-09 12:32 42.35011 19.25095 100 ft 52 kts
2026-05-09 12:33 42.35598 19.25155 109 ft 115 kts
2026-05-09 12:33 42.36574 19.25252 132 ft 163 kts
2026-05-09 12:33 42.37738 19.25370 647 ft 165 kts
2026-05-09 12:33 42.38874 19.25474 1293 ft 164 kts
2026-05-09 12:34 42.40001 19.25546 1948 ft 164 kts
2026-05-09 12:34 42.41206 19.25696 2346 ft 183 kts
2026-05-09 12:34 42.42079 19.25802 2628 ft 197 kts
2026-05-09 12:34 42.43529 19.25963 3034 ft 219 kts
2026-05-09 12:35 42.45485 19.26042 4287 ft 212 kts 348°
2026-05-09 12:35 42.46786 19.25130 5059 ft 212 kts 315°
2026-05-09 12:35 42.47728 19.23593 5880 ft 214 kts 310°
2026-05-09 12:35 42.48690 19.22034 6661 ft 216 kts 311°
2026-05-09 12:36 42.49328 19.20994 7174 ft 218 kts 311°
2026-05-09 12:36 42.50298 19.19395 7940 ft 220 kts 311°
2026-05-09 12:36 42.51268 19.17779 8693 ft 222 kts 310°
2026-05-09 12:36 42.52248 19.16135 9390 ft 226 kts 310°
2026-05-09 12:37 42.53244 19.14457 10098 ft 227 kts 310°
2026-05-09 12:37 42.54239 19.12790 10795 ft 231 kts 312°
2026-05-09 12:37 42.55522 19.11356 11179 ft 249 kts 330°
2026-05-09 12:37 42.57076 19.10126 11582 ft 268 kts 328°
2026-05-09 12:38 42.58711 19.08740 12064 ft 284 kts 328°
2026-05-09 12:38 42.60398 19.07296 12699 ft 294 kts 327°
2026-05-09 12:38 42.62130 19.05809 13643 ft 295 kts 327°
2026-05-09 12:38 42.63872 19.04311 14429 ft 299 kts 327°
2026-05-09 12:39 42.65638 19.02791 15247 ft 301 kts 327°
2026-05-09 12:39 42.67415 19.01261 16082 ft 304 kts 327°
2026-05-09 12:39 42.69206 18.99716 16853 ft 308 kts 327°
2026-05-09 12:39 42.71026 18.98146 17624 ft 310 kts 327°
2026-05-09 12:40 42.72860 18.96562 18393 ft 314 kts 326°
2026-05-09 12:40 42.74711 18.94963 19028 ft 317 kts 326°
2026-05-09 12:40 42.76679 18.93505 19456 ft 331 kts 339°
2026-05-09 12:40 42.79017 18.93035 19678 ft 352 kts
2026-05-09 12:41 42.81472 18.93705 20011 ft 367 kts 13°
2026-05-09 12:41 42.83969 18.94571 20578 ft 370 kts
2026-05-09 12:41 42.86455 18.95336 21163 ft 374 kts
2026-05-09 12:41 42.89037 18.96153 21752 ft 378 kts 10°
2026-05-09 12:42 42.91579 18.96972 22340 ft 382 kts
2026-05-09 12:42 42.94179 18.97818 22906 ft 386 kts
2026-05-09 12:42 42.96809 18.98678 23506 ft 390 kts
2026-05-09 12:42 42.99456 18.99545 24008 ft 393 kts
2026-05-09 12:43 43.02131 19.00423 24517 ft 396 kts
2026-05-09 12:43 43.04826 19.01308 25012 ft 400 kts
2026-05-09 12:43 43.07538 19.02200 25505 ft 403 kts
2026-05-09 12:43 43.10277 19.03101 25962 ft 406 kts
2026-05-09 12:44 43.13042 19.04011 26456 ft 409 kts
2026-05-09 12:44 43.15818 19.04926 26924 ft 412 kts
2026-05-09 12:44 43.18622 19.05853 27363 ft 415 kts
2026-05-09 12:44 43.21404 19.06770 27824 ft 419 kts
2026-05-09 12:45 43.24260 19.07714 28251 ft 422 kts
2026-05-09 12:45 43.27128 19.08662 28686 ft 425 kts
2026-05-09 12:45 43.30014 19.09618 29117 ft 428 kts
2026-05-09 12:45 43.32931 19.10584 29528 ft 432 kts
2026-05-09 12:46 43.35866 19.11558 29916 ft 436 kts
2026-05-09 12:46 43.38820 19.12540 30317 ft 438 kts
2026-05-09 12:46 43.41796 19.13529 30681 ft 440 kts
2026-05-09 12:46 43.44783 19.14522 31064 ft 442 kts
2026-05-09 12:47 43.47779 19.15520 31451 ft 444 kts
2026-05-09 12:47 43.50750 19.16511 31810 ft 446 kts
2026-05-09 12:47 43.53769 19.17519 32164 ft 448 kts
2026-05-09 12:47 43.56807 19.18536 32506 ft 450 kts
2026-05-09 12:48 43.59864 19.19558 32855 ft 452 kts
2026-05-09 12:48 43.62916 19.20579 33226 ft 452 kts
2026-05-09 12:48 43.65974 19.21605 33657 ft 451 kts
2026-05-09 12:48 43.69017 19.22627 34152 ft 449 kts
2026-05-09 12:49 43.72056 19.23648 34551 ft 449 kts
2026-05-09 12:49 43.75097 19.24670 34889 ft 449 kts
2026-05-09 12:49 43.78142 19.25695 35093 ft 451 kts
2026-05-09 12:50 43.84232 19.27748 35105 ft 449 kts
2026-05-09 12:50 43.90270 19.29787 35091 ft 449 kts
2026-05-09 12:51 43.96396 19.31862 35092 ft 451 kts
2026-05-09 12:51 44.02471 19.33923 35089 ft 452 kts
2026-05-09 12:52 44.08574 19.35997 35093 ft 452 kts
2026-05-09 12:52 44.14700 19.38084 35091 ft 453 kts
2026-05-09 12:53 44.20826 19.40177 35092 ft 454 kts
2026-05-09 12:53 44.26969 19.42278 35092 ft 454 kts
2026-05-09 12:54 44.33078 19.44373 35084 ft 454 kts
2026-05-09 12:54 44.39232 19.46488 35087 ft 455 kts
2026-05-09 12:55 44.45385 19.48607 35077 ft 455 kts
2026-05-09 12:55 44.51510 19.50721 35075 ft 456 kts
2026-05-09 12:56 44.57670 19.52851 35067 ft 456 kts
2026-05-09 12:56 44.63849 19.54994 35060 ft 456 kts
2026-05-09 12:57 44.69974 19.57121 35058 ft 456 kts
2026-05-09 12:57 44.76139 19.59268 35059 ft 456 kts 10°
2026-05-09 12:58 44.82317 19.61423 35051 ft 457 kts 10°
2026-05-09 12:58 44.88492 19.63583 35050 ft 457 kts 10°
2026-05-09 12:59 44.94639 19.65737 35159 ft 458 kts 10°
2026-05-09 12:59 44.97739 19.66825 35520 ft 458 kts 10°
2026-05-09 12:59 45.00826 19.67910 35806 ft 459 kts 10°
2026-05-09 12:59 45.03931 19.69003 36108 ft 459 kts 10°
2026-05-09 13:00 45.07009 19.70087 36405 ft 460 kts 10°
2026-05-09 13:00 45.10113 19.71181 36693 ft 460 kts
2026-05-09 13:00 45.13221 19.72279 36980 ft 461 kts
2026-05-09 13:00 45.16329 19.73378 37267 ft 461 kts
2026-05-09 13:01 45.19459 19.74485 37558 ft 462 kts
2026-05-09 13:01 45.22578 19.75590 37848 ft 462 kts
2026-05-09 13:01 45.25696 19.76696 38072 ft 462 kts
2026-05-09 13:02 45.31939 19.78914 38044 ft 460 kts
2026-05-09 13:02 45.38143 19.81122 38046 ft 460 kts
2026-05-09 13:03 45.44365 19.83342 38052 ft 461 kts
2026-05-09 13:03 45.50584 19.85567 38060 ft 461 kts
2026-05-09 13:04 45.56768 19.87784 38052 ft 460 kts
2026-05-09 13:04 45.62982 19.90016 38052 ft 460 kts
2026-05-09 13:05 45.69207 19.92258 38051 ft 460 kts 10°
2026-05-09 13:05 45.75419 19.94500 38055 ft 460 kts 10°
2026-05-09 13:06 45.81621 19.96744 38049 ft 460 kts 10°
2026-05-09 13:06 45.87793 19.98981 38051 ft 460 kts 10°
2026-05-09 13:07 45.93997 20.01235 38058 ft 460 kts 10°
2026-05-09 13:07 46.00196 20.03492 38053 ft 460 kts 10°
2026-05-09 13:08 46.06398 20.05755 38056 ft 460 kts 10°
2026-05-09 13:08 46.12606 20.08026 38053 ft 460 kts 10°
2026-05-09 13:09 46.18812 20.09264 38018 ft 444 kts 346°
2026-05-09 13:09 46.24680 20.06850 38031 ft 441 kts 340°
2026-05-09 13:10 46.30828 20.05759 38079 ft 450 kts 355°
2026-05-09 13:10 46.37017 20.04913 38064 ft 442 kts 342°
2026-05-09 13:11 46.43053 20.03040 38044 ft 446 kts 348°
2026-05-09 13:11 46.49171 20.01776 38055 ft 446 kts 347°
2026-05-09 13:12 46.55305 20.00379 38059 ft 446 kts 346°
2026-05-09 13:12 46.61445 19.98942 38053 ft 447 kts 346°
2026-05-09 13:13 46.67590 19.97499 38051 ft 446 kts 346°
2026-05-09 13:13 46.73733 19.96054 37823 ft 446 kts 346°
2026-05-09 13:13 46.76794 19.95333 37545 ft 446 kts 346°
2026-05-09 13:14 46.79865 19.94608 37276 ft 446 kts 346°
2026-05-09 13:14 46.82894 19.93892 37018 ft 446 kts 346°
2026-05-09 13:16 47.04431 19.88781 36050 ft 449 kts 346°
2026-05-09 13:16 47.10609 19.87307 36054 ft 449 kts 346°
2026-05-09 13:17 47.16777 19.85831 36055 ft 449 kts 346°
2026-05-09 13:17 47.22951 19.84351 36055 ft 449 kts 346°
2026-05-09 13:18 47.29128 19.82867 36055 ft 449 kts 346°
2026-05-09 13:18 47.35304 19.81380 36057 ft 449 kts 346°
2026-05-09 13:19 47.41473 19.79891 36049 ft 449 kts 346°
2026-05-09 13:19 47.47647 19.78397 36054 ft 450 kts 346°
2026-05-09 13:20 47.53814 19.76901 36049 ft 449 kts 346°
2026-05-09 13:20 47.59987 19.75400 36046 ft 449 kts 345°
2026-05-09 13:21 47.66122 19.73905 36049 ft 449 kts 345°
2026-05-09 13:21 47.72281 19.72400 36054 ft 449 kts 345°
2026-05-09 13:22 47.78458 19.70887 36054 ft 450 kts 345°
2026-05-09 13:22 47.84645 19.69368 36056 ft 449 kts 345°
2026-05-09 13:23 47.99047 19.65818 36055 ft 450 kts 345°
2026-05-09 13:24 48.05218 19.64292 36051 ft 449 kts 345°
2026-05-09 13:24 48.11401 19.62759 36053 ft 450 kts 345°
2026-05-09 13:25 48.17537 19.61233 36057 ft 450 kts 345°
2026-05-09 13:26 48.26904 19.59926 36038 ft 456 kts
2026-05-09 13:26 48.30059 19.60319 35366 ft 454 kts 358°
2026-05-09 13:26 48.33225 19.60408 34421 ft 458 kts 354°
2026-05-09 13:26 48.36403 19.60439 33417 ft 465 kts 355°
2026-05-09 13:27 48.39686 19.60524 32616 ft 464 kts 355°
2026-05-09 13:27 48.42887 19.60632 32191 ft 456 kts 355°
2026-05-09 13:27 48.45979 19.60744 31787 ft 448 kts 355°
2026-05-09 13:27 48.49081 19.60860 31268 ft 444 kts 355°
2026-05-09 13:28 48.52155 19.60977 30723 ft 440 kts 355°
2026-05-09 13:28 48.55201 19.61095 30229 ft 436 kts 356°
2026-05-09 13:28 48.58232 19.61212 29669 ft 432 kts 356°
2026-05-09 13:28 48.61221 19.61329 29167 ft 427 kts 356°
2026-05-09 13:29 48.64172 19.61443 28697 ft 422 kts 356°
2026-05-09 13:29 48.67100 19.61557 28231 ft 417 kts 356°
2026-05-09 13:29 48.69987 19.61669 27784 ft 412 kts 356°
2026-05-09 13:29 48.72843 19.61781 27334 ft 408 kts 356°
2026-05-09 13:30 48.75666 19.61891 26904 ft 404 kts 357°
2026-05-09 13:30 48.78460 19.62000 26474 ft 400 kts 357°
2026-05-09 13:30 48.81227 19.62108 26064 ft 396 kts 357°
2026-05-09 13:30 48.83940 19.62215 25652 ft 393 kts 358°
2026-05-09 13:31 48.86667 19.62322 25243 ft 390 kts 357°
2026-05-09 13:31 48.89368 19.62427 24836 ft 387 kts 358°
2026-05-09 13:31 48.92051 19.62533 24453 ft 384 kts 358°
2026-05-09 13:31 48.94722 19.62639 24055 ft 382 kts 358°
2026-05-09 13:32 48.97377 19.62744 23660 ft 381 kts 358°
2026-05-09 13:32 49.02638 19.62951 22811 ft 375 kts 358°
2026-05-09 13:32 49.05233 19.63053 22418 ft 372 kts 358°
2026-05-09 13:33 49.07806 19.63156 22045 ft 368 kts 358°
2026-05-09 13:33 49.10361 19.63258 21675 ft 365 kts 358°
2026-05-09 13:33 49.12879 19.63358 21307 ft 362 kts 358°
2026-05-09 13:33 49.15387 19.63457 20940 ft 359 kts 358°
2026-05-09 13:34 49.17880 19.63557 20578 ft 356 kts 358°
2026-05-09 13:34 49.20343 19.63655 20225 ft 354 kts 358°
2026-05-09 13:34 49.22800 19.63753 19862 ft 351 kts 358°
2026-05-09 13:34 49.25236 19.63850 19508 ft 349 kts 358°
2026-05-09 13:35 49.27631 19.63946 19163 ft 347 kts 358°
2026-05-09 13:35 49.30040 19.64042 18809 ft 345 kts 358°
2026-05-09 13:35 49.32432 19.64137 18459 ft 343 kts 358°
2026-05-09 13:35 49.34815 19.64233 18065 ft 341 kts 358°
2026-05-09 13:36 49.37184 19.64328 17613 ft 341 kts 358°
2026-05-09 13:36 49.39555 19.64423 17207 ft 339 kts 359°
2026-05-09 13:36 49.41908 19.64517 16844 ft 337 kts 359°
2026-05-09 13:36 49.44240 19.64723 16432 ft 337 kts
2026-05-09 13:37 49.46420 19.66030 16097 ft 340 kts 32°
2026-05-09 13:37 49.48282 19.68190 15923 ft 331 kts 33°
2026-05-09 13:37 49.50203 19.70057 15707 ft 323 kts 28°
2026-05-09 13:37 49.52128 19.71833 15414 ft 320 kts 29°
2026-05-09 13:38 49.54015 19.73628 15096 ft 318 kts 29°
2026-05-09 13:38 49.55881 19.75431 14784 ft 316 kts 30°
2026-05-09 13:38 49.57732 19.77239 14459 ft 314 kts 30°
2026-05-09 13:38 49.59546 19.79025 14147 ft 312 kts 30°
2026-05-09 13:39 49.61370 19.80829 13806 ft 311 kts 30°
2026-05-09 13:39 49.63184 19.82626 13462 ft 310 kts 30°
2026-05-09 13:39 49.64997 19.84424 13128 ft 308 kts 30°
2026-05-09 13:39 49.66790 19.86204 12805 ft 306 kts 30°
2026-05-09 13:40 49.68576 19.87979 12484 ft 304 kts 30°
2026-05-09 13:40 49.70344 19.89738 12168 ft 302 kts 30°
2026-05-09 13:40 49.72104 19.91489 11863 ft 300 kts 30°
2026-05-09 13:40 49.73858 19.93237 11548 ft 299 kts 30°
2026-05-09 13:41 49.75603 19.94976 11227 ft 298 kts 30°
2026-05-09 13:41 49.77336 19.96705 10923 ft 296 kts 30°
2026-05-09 13:41 49.79062 19.98430 10615 ft 295 kts 30°
2026-05-09 13:41 49.80782 20.00149 10319 ft 293 kts 30°
2026-05-09 13:42 49.82472 20.01840 10182 ft 285 kts 30°
2026-05-09 13:42 49.84131 20.03501 9971 ft 285 kts 30°
2026-05-09 13:42 49.85800 20.05171 9633 ft 286 kts 31°
2026-05-09 13:42 49.87466 20.06844 9353 ft 283 kts 31°
2026-05-09 13:43 49.89074 20.08459 9247 ft 274 kts 31°
2026-05-09 13:43 49.90652 20.10045 9100 ft 267 kts 31°
2026-05-09 13:43 49.92211 20.11611 8814 ft 265 kts 31°
2026-05-09 13:43 49.93736 20.13146 8684 ft 257 kts 31°
2026-05-09 13:44 49.95227 20.14647 8424 ft 255 kts 31°
2026-05-09 13:44 49.96713 20.16143 8170 ft 253 kts 31°
2026-05-09 13:44 49.98187 20.17630 7890 ft 252 kts 31°
2026-05-09 13:44 49.99646 20.19103 7627 ft 250 kts 31°
2026-05-09 13:45 50.01111 20.20581 7355 ft 248 kts 31°
2026-05-09 13:45 50.02538 20.22024 7093 ft 247 kts 31°
2026-05-09 13:45 50.03981 20.23462 6844 ft 245 kts 27°
2026-05-09 13:45 50.05588 20.24233 6468 ft 244 kts 357°
2026-05-09 13:46 50.07239 20.23801 6159 ft 241 kts 346°
2026-05-09 13:46 50.08875 20.23285 5874 ft 235 kts 347°
2026-05-09 13:46 50.10435 20.22806 5661 ft 222 kts 347°
2026-05-09 13:46 50.11900 20.22347 5517 ft 208 kts 347°
2026-05-09 13:47 50.13230 20.21674 5409 ft 198 kts 325°
2026-05-09 13:47 50.14127 20.20107 5346 ft 195 kts 301°
2026-05-09 13:47 50.14542 20.18118 5236 ft 196 kts 271°
2026-05-09 13:47 50.14355 20.16005 5152 ft 198 kts 259°
2026-05-09 13:48 50.14039 20.13918 5000 ft 198 kts 257°
2026-05-09 13:48 50.13696 20.11848 4808 ft 197 kts 256°
2026-05-09 13:48 50.13341 20.09781 4609 ft 198 kts 256°
2026-05-09 13:48 50.12979 20.07707 4377 ft 198 kts 256°
2026-05-09 13:49 50.12618 20.05661 4149 ft 198 kts 257°
2026-05-09 13:49 50.12248 20.03592 3911 ft 197 kts 256°
2026-05-09 13:49 50.11883 20.01546 3643 ft 193 kts 256°
2026-05-09 13:49 50.11525 19.99549 3408 ft 189 kts 256°
2026-05-09 13:50 50.11174 19.97588 3145 ft 186 kts 256°
2026-05-09 13:50 50.10837 19.95730 2930 ft 168 kts 256°
2026-05-09 13:50 50.10539 19.94073 2735 ft 150 kts 257°
2026-05-09 13:50 50.10261 19.92528 2521 ft 147 kts 257°
2026-05-09 13:51 50.09992 19.91027 2323 ft 147 kts 256°
2026-05-09 13:51 50.09729 19.89625 2115 ft 147 kts 255°
2026-05-09 13:51 50.09410 19.88133 1899 ft 147 kts 254°
2026-05-09 13:51 50.09076 19.86628 1733 ft 147 kts 253°
2026-05-09 13:52 50.08777 19.85112 1525 ft 146 kts 256°
2026-05-09 13:52 50.08508 19.83587 1368 ft 146 kts 258°
2026-05-09 13:52 50.08266 19.82060 1118 ft 145 kts 258°
2026-05-09 13:52 50.08059 19.80520 925 ft 146 kts 259°
2026-05-09 13:53 50.07844 19.78996 794 ft 136 kts 257°
2026-05-09 13:53 50.07716 19.78063 791 ft 18 kts 258°
2026-05-09 13:53 50.07687 19.78019 791 ft 3 kts 116°
2026-05-09 13:53 50.07691 19.78065 791 ft 7 kts 86°
2026-05-09 13:54 50.07656 19.78109 792 ft 8 kts 178°
2026-05-09 13:54 50.07587 19.78104 792 ft 11 kts 183°
2026-05-09 13:54 50.07501 19.78100 792 ft 10 kts 176°
2026-05-09 13:54 50.07474 19.78138 792 ft 6 kts 101°
2026-05-09 13:55 50.07484 19.78227 792 ft 10 kts 78°
2026-05-09 13:55 50.07501 19.78351 792 ft 13 kts 78°
2026-05-09 13:55 50.07522 19.78505 792 ft 16 kts 78°
2026-05-09 13:55 50.07547 19.78686 792 ft 18 kts 78°
2026-05-09 13:56 50.07577 19.78895 792 ft 21 kts 78°
2026-05-09 13:56 50.07609 19.79131 792 ft 23 kts 77°
2026-05-09 13:56 50.07646 19.79390 792 ft 26 kts 78°
2026-05-09 13:56 50.07683 19.79656 792 ft 20 kts 78°
2026-05-09 13:57 50.07698 19.79843 792 ft 14 kts 118°
2026-05-09 13:57 50.07607 19.79902 792 ft 15 kts 168°
2026-05-09 13:57 50.07497 19.79938 792 ft 17 kts 168°
2026-05-09 13:57 50.07406 19.80002 792 ft 15 kts 113°
2026-05-09 13:58 50.07420 19.80166 792 ft 15 kts 78°
2026-05-09 13:58 50.07430 19.80306 792 ft 9 kts 120°
2026-05-09 13:58 50.07388 19.80337 792 ft 6 kts 168°
2026-05-09 13:58 50.07362 19.80346 792 ft 0 kts 167°